GW3673 Weather Reports


Display with metric or nautical units.
time (UTC)temp
F
wind
direction
speed
MPH
gust
MPH
rain 1hr
in
rain 24hr
in
rain mn
in
humidity
%
barometer
mb
20260508004519 49 0.0 0.0 0.01 0.01 0.01 91 1015.1
20260508003539 49 0.0 0.0 0.01 0.01 0.01 90 1015.2
20260508002516 49 0.0 0.0 0.01 0.01 0.01 90 1015.2
20260508001519 49 0.0 0.0 0.00 0.00 0.00 90 1015.2
20260508000536 49 0.0 0.0 0.00 0.00 0.00 90 1015.2
20260507235517 49 0.0 0.0 0.00 0.00 0.00 90 1015.2
20260507234517 49 0.0 0.0 0.00 0.00 0.00 90 1015.2
20260507233518 49 0.0 0.0 0.00 0.00 0.00 89 1015.2
20260507232517 49 0.0 0.0 0.00 0.00 0.00 89 1015.2
20260507231521 49 0.0 0.0 0.00 0.00 0.00 88 1015.2
20260507230518 49 0.0 0.0 0.00 0.00 0.00 88 1015.3
20260507225518 49 0.0 0.0 0.00 0.00 0.00 88 1015.3
20260507224518 49 0.0 0.0 0.00 0.00 0.00 87 1015.4
20260507223518 50 0.0 0.0 0.00 0.00 0.00 87 1015.4
20260507222518 50 0.0 0.0 0.00 0.00 0.00 86 1015.3
20260507221519 50 0.0 0.0 0.00 0.00 0.00 85 1015.4
20260507220519 51 0.0 0.0 0.00 0.00 0.00 84 1015.4
20260507215519 51 0.0 0.0 0.00 0.00 0.00 84 1015.4
20260507214528 51 0.0 0.0 0.00 0.00 0.00 83 1015.4
20260507213525 52 320 0.0 1.0 0.00 0.00 0.00 83 1015.4
20260507212516 52 0.0 0.0 0.00 0.00 0.00 82 1015.4
20260507211520 52 0.0 0.0 0.00 0.00 0.00 82 1015.3
20260507210519 52 0.0 0.0 0.00 0.00 0.00 82 1015.2
20260507205520 52 0.0 0.0 0.00 0.00 0.00 81 1015.2
20260507204523 53 0.0 0.0 0.00 0.00 0.00 81 1015.1
20260507203517 53 0.0 0.0 0.00 0.00 0.00 81 1015.0
20260507202517 53 0.0 0.0 0.00 0.00 0.00 80 1014.9
20260507200518 54 0.0 0.0 0.00 0.00 0.00 80 1014.8
20260507195518 54 0.0 0.0 0.00 0.00 0.00 79 1014.7
20260507194518 54 0.0 0.0 0.00 0.00 0.00 78 1014.7
20260507193518 55 0.0 0.0 0.00 0.00 0.00 78 1014.6
20260507192519 55 273 0.0 1.0 0.00 0.00 0.00 77 1014.5
20260507191519 55 0.0 0.0 0.00 0.00 0.00 76 1014.5
20260507190519 55 0.0 0.0 0.00 0.00 0.00 75 1014.5
20260507185517 56 0.0 0.0 0.00 0.00 0.00 74 1014.5
20260507184517 56 306 0.0 1.0 0.00 0.00 0.00 73 1014.5
20260507183536 56 0.0 0.0 0.00 0.00 0.00 72 1014.5
20260507182519 57 256 0.0 2.0 0.00 0.00 0.00 72 1014.5
20260507181519 57 298 0.0 2.0 0.00 0.00 0.00 72 1014.5
20260507180518 57 343 0.0 1.0 0.00 0.00 0.00 69 1014.4
20260507175517 58 304 0.0 2.0 0.00 0.00 0.00 69 1014.3
20260507174517 58 238 0.0 2.0 0.00 0.00 0.00 67 1014.3
20260507173517 58 241 0.0 2.0 0.00 0.00 0.00 67 1014.4
20260507172517 58 220 0.0 2.0 0.00 0.00 0.00 68 1014.4
20260507171618 58 297 0.0 1.0 0.00 0.00 0.00 67 1014.3
20260507170538 58 49 0.0 1.0 0.00 0.00 0.00 67 1014.4
20260507165518 58 0.0 0.0 0.00 0.00 0.00 68 1014.4
20260507164518 58 249 0.0 1.0 0.00 0.00 0.00 68 1014.4
20260507163518 58 283 0.0 2.0 0.00 0.00 0.00 69 1014.4
20260507162519 58 306 0.0 2.0 0.00 0.00 0.00 69 1014.4
20260507161601 57 261 0.0 2.0 0.00 0.00 0.00 69 1014.4
20260507160536 57 344 0.0 0.0 0.00 0.00 0.00 69 1014.5
20260507155520 57 265 0.0 1.0 0.00 0.00 0.00 69 1014.5
20260507154522 58 321 0.0 3.0 0.00 0.00 0.00 71 1014.5
20260507153520 58 191 0.0 2.0 0.00 0.00 0.00 70 1014.5
20260507152517 58 70 0.0 5.0 0.00 0.00 0.00 69 1014.6
20260507151517 58 196 1.0 3.0 0.00 0.00 0.00 68 1014.6
20260507150537 58 146 2.0 5.0 0.00 0.00 0.00 66 1014.5
20260507145557 58 204 1.0 4.0 0.00 0.00 0.00 64 1014.6
20260507144520 59 209 1.0 3.0 0.00 0.00 0.00 63 1014.6
20260507143540 59 193 1.0 4.0 0.00 0.00 0.00 62 1014.6
20260507142520 59 175 1.0 3.0 0.00 0.00 0.00 60 1014.7
20260507141521 58 159 0.0 2.0 0.00 0.00 0.00 63 1014.8
20260507140521 59 139 1.0 4.0 0.00 0.00 0.00 64 1014.8
20260507135518 59 166 1.0 5.0 0.00 0.00 0.00 63 1014.8
20260507134538 58 155 1.0 4.0 0.00 0.00 0.00 65 1014.8
20260507133539 58 171 2.0 4.0 0.00 0.00 0.00 64 1014.8
20260507132519 58 157 0.0 3.0 0.00 0.00 0.00 66 1014.8
20260507131519 58 192 1.0 4.0 0.00 0.00 0.00 64 1014.9
20260507130619 58 157 1.0 4.0 0.00 0.00 0.00 64 1014.9
20260507125522 58 149 2.0 4.0 0.00 0.00 0.00 64 1014.9
20260507124519 58 159 2.0 6.0 0.00 0.00 0.00 65 1015.0
20260507123519 58 149 2.0 7.0 0.00 0.00 0.00 64 1015.0
20260507122517 59 170 2.0 6.0 0.00 0.00 0.00 63 1015.0
20260507121517 59 172 1.0 5.0 0.00 0.00 0.00 64 1015.0
20260507120537 59 153 1.0 6.0 0.00 0.00 0.00 65 1015.0
20260507115520 59 162 1.0 6.0 0.00 0.00 0.00 65 1015.0
20260507114520 59 124 1.0 6.0 0.00 0.00 0.00 64 1015.1
20260507113525 0 145 1.0 4.0 0.00 0.00 0.00
20260507112518 59 162 1.0 5.0 0.00 0.00 0.00 67 1015.2
20260507111518 59 164 1.0 3.0 0.00 0.00 0.00 67 1015.2
20260507110518 58 137 1.0 3.0 0.00 0.00 0.00 68 1015.3
20260507105521 59 107 1.0 3.0 0.00 0.00 0.00 67 1015.3
20260507104519 59 115 1.0 4.0 0.00 0.00 0.00 66 1015.4
20260507103524 59 128 1.0 4.0 0.00 0.00 0.00 67 1015.5
20260507102545 58 125 1.0 5.0 0.00 0.00 0.00 67 1015.5
20260507101525 58 124 1.0 5.0 0.00 0.00 0.00 68 1015.6
20260507100539 57 97 1.0 3.0 0.00 0.00 0.00 68 1015.6
20260507095519 57 130 1.0 3.0 0.00 0.00 0.00 70 1015.5
20260507094522 57 98 1.0 3.0 0.00 0.00 0.00 68 1015.5
20260507093539 56 156 1.0 4.0 0.00 0.00 0.00 69 1015.4
20260507092520 57 156 1.0 5.0 0.00 0.00 0.00 69 1015.4
20260507091523 57 155 1.0 4.0 0.00 0.00 0.00 68 1015.4
20260507090523 56 104 1.0 3.0 0.00 0.00 0.00 68 1015.5
20260507084520 55 103 1.0 5.0 0.00 0.00 0.00 71 1015.5
20260507083518 55 117 1.0 5.0 0.00 0.00 0.00 71 1015.5
20260507082520 54 110 1.0 4.0 0.00 0.00 0.00 73 1015.5
20260507081521 0 91 1.0 4.0 0.00 0.00 0.00
20260507080528 52 105 1.0 4.0 0.00 0.00 0.00 77 1015.5
20260507075538 51 96 1.0 5.0 0.00 0.00 0.00 78 1015.5
20260507074521 50 110 2.0 5.0 0.00 0.00 0.00 79 1015.4
20260507073519 50 80 1.0 4.0 0.00 0.00 0.00 80 1015.4
20260507072519 49 85 1.0 3.0 0.00 0.00 0.00 81 1015.5
20260507071519 49 110 1.0 5.0 0.00 0.00 0.00 82 1015.4
20260507070539 49 123 1.0 4.0 0.00 0.00 0.00 82 1015.4
20260507065519 48 126 1.0 3.0 0.00 0.00 0.00 82 1015.4
20260507064520 48 102 0.0 2.0 0.00 0.00 0.00 82 1015.4
20260507063519 48 97 0.0 3.0 0.00 0.00 0.00 82 1015.4
20260507062525 48 122 0.0 3.0 0.00 0.00 0.00 82 1015.3
20260507061523 48 125 0.0 2.0 0.00 0.00 0.00 82 1015.3
20260507060526 48 95 0.0 1.0 0.00 0.00 0.00 82 1015.2
20260507055517 48 123 0.0 2.0 0.00 0.00 0.00 82 1015.1
20260507054526 48 135 0.0 2.0 0.00 0.00 0.00 82 1015.1
20260507053523 48 135 0.0 3.0 0.00 0.00 0.00 81 1015.1
20260507052520 48 140 1.0 3.0 0.00 0.00 0.00 81 1015.0
20260507051520 48 70 0.0 2.0 0.00 0.00 0.00 80 1014.9
20260507050521 48 130 0.0 3.0 0.00 0.00 0.00 80 1015.0
20260507045541 48 127 0.0 3.0 0.00 0.00 0.00 80 1015.0
20260507044518 48 124 0.0 3.0 0.00 0.00 0.00 80 1014.9
20260507043538 48 132 1.0 3.0 0.00 0.00 0.00 80 1014.9
20260507042519 48 113 0.0 2.0 0.00 0.00 0.00 79 1014.9
20260507041522 48 138 0.0 2.0 0.00 0.00 0.00 79 1014.9
20260507040518 48 128 0.0 1.0 0.00 0.00 0.00 78 1014.9
20260507035519 48 100 0.0 2.0 0.00 0.00 0.00 78 1014.9
20260507034519 48 121 1.0 5.0 0.00 0.00 0.00 78 1014.8
20260507033520 48 118 1.0 4.0 0.00 0.00 0.00 78 1014.8
20260507032519 48 112 1.0 4.0 0.00 0.00 0.00 78 1014.9
20260507031519 49 121 1.0 5.0 0.00 0.00 0.00 78 1014.9
20260507030520 49 134 1.0 4.0 0.00 0.00 0.00 78 1014.9
20260507025520 49 109 0.0 3.0 0.00 0.00 0.00 78 1014.9
20260507024521 49 106 1.0 3.0 0.00 0.00 0.00 77 1014.9
20260507023520 49 95 1.0 4.0 0.00 0.00 0.00 77 1014.9
20260507022518 49 114 1.0 3.0 0.00 0.00 0.00 76 1014.9
20260507021518 49 118 1.0 4.0 0.00 0.00 0.00 76 1014.9
20260507020618 50 118 1.0 4.0 0.00 0.00 0.00 76 1014.9
20260507015521 50 112 1.0 4.0 0.00 0.00 0.00 75 1014.9
20260507014522 50 107 1.0 4.0 0.00 0.00 0.00 75 1014.9
20260507013519 50 120 1.0 4.0 0.00 0.00 0.00 74 1014.9
20260507012519 50 109 1.0 6.0 0.00 0.00 0.00 74 1014.9
20260507010519 51 108 1.0 4.0 0.00 0.00 0.00 72 1015.0
20260507005539 51 123 1.0 3.0 0.00 0.00 0.00 71 1014.9